Theta_e
326 325 327 329 326 329 333 334 331 328 334 342 333 328 333 335 334 338 338 339 346 351 352 359 361 361 365 364 364 364 361 363 363 361 361 359 359 358 352 352 354 351 349 348 347 347 346 346 346 348 351 352 352 352 352 351 350 351 352 350 350 352 353
327 327 329 332 329 333 337 331 333 337 336 341 339 333 336 339 332 331 336 339 343 344 347 358 363 363 364 363 364 363 362 364 364 363 364 362 363 362 355 352 355 352 348 348 348 347 346 346 345 347 350 351 352 352 353 352 351 352 352 351 351 353 354
326 330 329 328 329 333 336 334 341 341 329 332 338 333 333 336 334 332 335 338 341 343 347 357 361 362 366 366 365 364 361 362 363 363 367 366 360 361 361 356 353 351 347 347 349 348 347 347 345 347 350 351 352 352 353 352 351 351 352 352 353 353 354
323 332 332 325 326 331 333 335 338 339 335 336 337 333 332 338 338 334 335 337 342 351 356 359 360 361 365 366 367 368 363 360 362 361 364 368 363 361 366 361 353 350 347 347 349 348 348 348 345 346 349 351 352 352 353 353 352 352 353 354 354 353 354
322 324 327 327 331 333 334 334 328 330 335 334 334 335 337 343 340 335 337 337 342 358 363 360 361 360 360 362 364 368 366 361 361 361 360 365 365 361 364 366 359 351 347 347 349 348 348 349 346 346 349 351 352 352 352 353 352 353 353 355 355 354 354
318 321 327 332 336 335 338 338 330 332 336 333 333 334 338 346 343 338 339 337 345 364 363 360 366 361 357 361 362 365 364 362 361 360 357 358 361 362 360 363 363 356 349 348 349 348 348 348 347 346 349 351 351 352 352 353 353 353 354 355 355 355 355
321 323 327 329 331 335 338 336 335 342 344 341 340 335 337 343 341 341 341 338 350 366 361 361 368 362 357 359 362 363 361 362 362 360 360 358 359 362 359 357 359 355 349 348 348 348 348 348 348 347 349 351 352 353 352 353 355 354 353 355 356 356 356
340 331 334 334 330 336 339 334 337 340 338 345 351 347 346 342 336 341 342 338 351 366 362 362 363 362 361 359 361 364 362 364 363 361 364 361 358 359 356 354 354 349 347 348 348 347 347 347 348 349 350 351 353 353 353 354 355 354 354 355 356 357 358
338 333 339 337 331 335 342 340 340 340 340 346 347 346 349 342 335 340 340 339 353 365 360 360 360 361 362 360 360 363 363 362 360 359 361 359 359 359 354 352 352 348 348 350 349 347 347 347 348 349 350 351 353 354 354 354 355 355 355 355 356 357 357
327 329 330 327 327 331 335 339 339 337 341 344 340 339 341 339 336 338 338 342 355 362 357 356 360 360 360 363 363 360 359 356 355 356 355 355 360 362 360 356 352 350 349 348 348 349 348 347 348 349 349 351 353 354 354 355 355 356 356 356 357 357 357
329 333 334 332 332 325 320 329 336 333 336 343 344 339 337 341 338 336 345 351 346 350 357 357 363 366 360 362 363 357 355 354 354 354 352 354 358 360 364 362 355 354 352 347 347 348 349 349 348 349 349 350 352 354 354 355 355 356 356 356 356 357 357
328 332 334 331 327 321 317 322 329 332 339 342 339 335 339 345 335 332 352 358 339 346 365 362 364 368 361 362 364 359 356 355 355 354 350 353 354 353 358 359 355 355 354 351 349 346 346 349 349 349 350 349 351 352 354 355 355 356 356 356 356 356 356
326 327 326 325 323 322 321 322 326 333 339 338 334 337 345 345 333 335 356 356 342 352 367 360 359 363 364 367 363 356 354 353 352 352 350 351 352 350 352 354 352 352 353 353 350 347 347 347 348 350 349 348 350 351 352 354 354 355 356 355 356 355 355
326 326 323 326 324 321 320 321 327 334 337 337 336 339 347 344 337 346 359 354 348 356 360 358 359 361 363 363 356 353 354 353 350 350 350 351 351 350 351 352 352 352 352 352 349 347 348 346 347 349 349 348 349 350 352 353 353 354 354 354 356 355 354
324 330 327 325 324 322 321 323 326 329 331 332 332 335 341 339 337 347 355 351 349 352 353 356 358 357 358 359 358 359 356 351 350 350 350 351 350 350 351 352 353 352 351 351 349 347 347 345 346 348 348 349 349 349 351 351 352 353 352 353 355 354 354
323 329 324 322 328 328 326 327 327 328 328 326 327 334 339 338 341 345 346 346 351 356 354 355 356 355 358 362 364 363 355 350 349 350 351 350 349 351 353 352 353 353 352 351 349 347 346 345 346 346 348 350 350 350 351 351 352 352 352 354 355 354 353
323 327 324 327 334 328 325 334 334 330 332 331 332 341 346 348 350 344 340 347 358 358 355 358 360 358 361 365 361 356 353 351 349 348 349 349 349 352 352 350 353 352 350 349 347 347 346 345 345 346 348 350 350 351 352 351 351 351 352 354 354 354 353
319 327 334 334 329 322 329 349 346 334 336 340 342 346 350 357 358 350 349 356 359 354 356 367 371 363 359 358 353 349 349 349 349 348 348 348 348 349 348 350 351 349 347 347 347 347 348 347 347 347 348 350 350 351 352 351 351 351 352 353 354 354 353
322 335 343 329 322 327 339 349 342 335 337 344 347 347 347 353 358 361 362 359 355 355 360 366 365 356 352 350 349 349 349 349 349 349 348 347 347 347 347 348 348 346 345 345 345 345 346 347 348 348 349 350 350 351 352 352 351 351 352 353 354 354 353
325 330 329 323 327 339 345 340 336 335 337 341 348 348 345 347 353 360 363 358 356 358 357 356 354 350 349 350 349 349 349 349 349 348 347 347 346 345 345 345 345 344 344 344 344 344 344 345 346 347 348 350 350 350 351 352 352 351 352 353 353 353 354
326 326 325 331 335 336 341 342 336 335 338 343 352 350 344 344 349 355 360 360 359 358 354 352 351 348 349 352 351 349 348 348 348 346 345 344 344 343 342 342 343 343 343 344 344 344 344 344 344 345 346 347 349 350 349 350 351 350 350 351 352 352 353
333 332 327 330 327 326 339 346 336 333 338 343 353 351 345 345 348 352 362 365 362 359 353 350 349 347 351 360 358 350 347 348 347 345 343 341 341 341 340 340 342 341 341 342 342 341 342 342 342 343 343 343 347 349 348 348 349 349 349 349 350 351 353
334 333 326 325 323 327 342 345 334 329 332 343 355 351 347 353 350 349 361 366 360 357 353 350 349 348 354 364 361 352 348 348 347 346 344 341 340 339 340 340 340 340 339 339 339 339 339 339 340 341 341 342 346 348 349 349 348 348 348 348 348 349 350
333 333 327 325 325 327 337 342 338 334 337 346 343 333 340 358 354 348 360 364 359 357 353 350 351 353 356 361 357 350 348 345 342 342 342 340 339 339 340 339 338 337 337 337 337 337 337 338 340 340 341 344 346 348 349 349 349 348 348 347 347 348 349
334 332 325 323 326 333 340 342 342 342 342 341 333 330 345 361 353 349 360 364 359 357 353 351 354 356 355 352 349 346 346 344 341 339 338 338 338 338 338 337 336 335 335 335 335 335 336 338 340 341 342 345 347 347 348 348 348 348 347 346 346 346 347
335 335 330 326 329 340 345 344 347 347 338 337 344 350 354 355 352 351 355 360 359 356 353 353 355 354 350 347 346 346 345 345 342 338 337 338 337 336 335 334 334 333 333 334 334 334 335 338 340 342 343 344 346 346 346 346 346 346 345 345 345 344 345
334 331 329 327 331 341 344 343 348 349 342 348 360 357 346 349 356 354 351 355 357 354 353 354 352 349 347 345 345 344 343 342 340 337 337 338 336 334 334 332 332 332 332 332 333 333 334 336 339 340 341 342 343 343 344 344 344 345 344 343 343 343 343
335 329 330 336 345 352 350 349 353 350 347 356 362 352 347 350 353 352 352 353 352 352 355 353 348 347 345 344 343 343 341 341 339 337 337 336 334 333 332 331 331 331 331 332 332 332 333 334 336 337 338 341 341 341 342 343 343 343 343 342 342 341 340
339 341 344 348 351 349 347 355 360 350 345 351 353 349 350 350 348 352 355 353 350 351 352 349 346 345 344 343 342 342 341 340 338 337 335 333 332 332 331 331 331 330 330 331 330 330 330 331 332 333 333 336 338 339 340 341 341 341 340 340 340 338 338
334 340 344 343 342 341 343 351 355 346 341 345 347 347 350 351 350 354 356 355 353 350 348 348 346 343 342 343 341 340 340 339 336 333 331 330 330 330 329 329 329 329 329 329 328 328 327 327 329 329 329 330 333 336 338 339 339 338 338 337 336 336 336
329 332 337 338 339 342 345 348 349 348 346 346 349 353 356 355 353 354 354 354 351 346 345 347 345 341 341 342 341 339 339 336 332 329 327 327 328 327 327 327 326 327 327 326 326 326 325 325 326 327 328 328 329 332 335 336 335 335 334 334 334 333 334
334 335 339 341 341 342 345 346 347 350 350 348 351 356 357 353 351 350 348 348 348 348 345 343 342 341 340 340 340 339 336 332 328 325 325 325 325 325 325 324 324 324 325 324 324 324 323 324 324 325 326 325 326 328 330 331 332 332 331 330 330 330 331
339 338 337 341 342 342 343 345 346 348 349 349 351 354 354 351 349 348 345 343 344 346 344 342 341 340 340 340 339 336 333 329 326 324 324 324 324 323 323 322 322 323 322 322 322 321 320 321 322 323 323 324 325 326 326 328 329 328 327 327 327 327 328
341 344 342 343 345 343 341 342 344 346 349 353 353 352 352 350 349 349 348 343 340 339 337 337 340 341 339 337 335 332 331 328 325 325 325 324 323 323 324 326 326 324 321 319 319 320 320 320 321 321 321 322 323 324 324 325 325 324 324 324 323 324 325
345 350 349 347 348 347 343 340 341 344 348 353 354 351 350 351 350 349 349 346 342 339 335 333 336 338 336 333 331 331 329 327 326 327 326 325 325 327 328 329 329 327 325 323 323 323 323 322 321 321 320 319 321 322 323 324 323 323 323 322 321 322 322
345 344 344 344 344 345 342 339 342 344 345 348 351 349 349 351 348 346 346 345 341 340 339 335 332 332 332 330 330 330 329 329 329 329 328 328 330 330 330 330 330 330 330 329 328 327 325 322 321 321 320 321 323 325 326 325 323 322 321 320 320 320 320
344 342 341 339 340 342 340 338 341 342 340 341 346 345 345 346 342 339 341 341 336 335 338 335 331 330 330 329 329 329 329 330 331 330 330 331 330 330 330 330 330 331 330 329 329 328 327 326 325 325 324 325 325 326 326 323 321 321 321 320 320 320 319
Wind_Speed
4 4 3 3 5 3 0 3 2 3 4 6 3 1 2 3 3 1 1 1 3 2 1 3 4 5 6 5 4 3 4 3 5 6 7 7 6 6 9 11 10 10 13 17 22 25 25 27 29 29 32 35 35 34 35 35 34 32 31 31 31 30 29
3 2 3 4 2 4 4 2 4 2 2 4 4 1 3 4 2 2 1 2 2 1 1 4 6 7 6 6 4 1 1 2 5 5 5 6 5 3 5 8 8 10 9 13 17 24 26 27 29 31 34 37 37 36 36 36 34 33 32 32 31 30 30
2 2 6 5 6 4 5 4 4 3 3 1 2 2 1 2 0 2 2 0 1 2 1 4 6 5 5 6 5 3 2 1 4 5 5 5 5 4 3 5 7 11 14 15 15 20 26 27 27 30 34 36 36 36 36 36 36 35 33 32 31 31 31
2 3 4 2 2 5 4 3 3 3 3 3 1 2 2 2 1 1 1 2 1 3 3 3 4 5 3 4 5 4 4 3 2 2 3 4 5 6 4 5 7 10 16 18 17 17 22 28 28 29 33 35 35 36 36 36 36 35 33 31 31 31 30
4 3 1 5 5 2 3 4 3 2 2 2 2 1 1 3 3 2 1 2 4 4 3 3 4 4 1 1 2 4 4 5 5 5 4 4 3 5 5 6 7 10 16 20 19 18 19 25 29 29 32 34 35 35 35 35 35 34 33 31 30 30 30
3 4 3 6 7 5 5 4 3 3 2 2 2 1 2 1 3 3 3 1 5 4 2 4 4 2 1 2 2 1 4 4 5 6 5 6 5 3 5 6 5 7 11 17 22 21 17 16 23 30 32 33 34 34 34 35 34 34 34 33 31 31 30
2 6 2 6 8 5 5 3 3 3 3 4 4 2 2 1 1 1 3 1 5 4 3 4 4 2 2 3 4 1 2 3 3 5 5 5 5 5 3 4 3 2 2 6 18 24 18 12 17 26 32 32 33 34 34 33 33 34 34 33 32 31 30
4 6 5 4 5 5 5 2 3 4 3 4 5 4 3 3 2 1 2 0 4 5 4 3 3 3 3 3 4 3 2 3 3 4 5 3 3 5 4 2 1 1 3 4 10 19 20 16 17 22 30 33 33 34 34 34 33 34 35 33 32 31 30
5 5 6 5 5 3 2 1 2 4 6 6 4 2 3 2 3 4 3 2 5 4 2 1 3 5 4 3 2 3 1 2 3 3 3 1 1 3 5 5 4 5 6 9 8 14 18 19 19 21 26 32 34 34 34 34 34 34 34 33 32 32 31
1 1 1 2 2 2 1 1 3 5 8 9 5 2 3 1 3 4 4 4 5 5 3 2 4 5 5 5 3 3 3 3 4 3 3 3 0 1 3 5 6 7 8 12 11 9 17 22 21 20 21 27 33 35 35 35 34 34 33 33 32 32 32
5 6 6 5 2 1 3 3 5 6 8 8 6 4 3 3 3 3 4 5 3 6 6 4 4 5 4 5 3 3 2 1 3 3 2 4 3 2 2 4 6 7 8 4 10 11 9 18 24 20 16 19 25 30 33 34 34 35 34 33 33 33 33
7 8 7 6 3 3 5 5 6 8 8 8 7 5 5 5 6 3 6 6 4 5 7 6 6 5 4 5 2 2 2 3 3 3 3 5 5 3 1 4 5 4 6 6 3 9 16 12 17 23 18 15 19 23 25 26 29 32 34 35 34 34 33
4 5 5 4 2 3 6 5 6 9 9 10 10 7 6 9 7 5 6 8 7 6 6 5 5 4 4 5 4 3 2 3 2 1 3 5 5 5 3 3 5 4 2 2 7 8 5 13 10 17 21 18 19 22 23 21 22 25 28 31 34 34 34
5 5 4 4 5 4 6 6 5 9 11 12 10 7 8 10 6 4 6 9 7 4 3 3 4 4 4 3 3 1 2 3 2 1 1 3 5 5 3 2 4 5 5 2 2 8 9 3 10 7 13 21 21 22 23 22 19 19 19 21 26 30 32
5 6 5 6 6 4 5 8 5 7 10 8 5 4 7 6 1 1 6 6 3 3 2 3 3 3 2 1 4 4 3 3 2 2 1 2 4 6 4 2 4 5 6 6 4 5 10 11 6 8 7 16 22 22 22 23 21 19 16 14 16 19 23
4 4 4 5 5 5 6 7 6 1 6 4 0 2 5 5 4 5 6 4 3 4 3 3 3 4 3 4 6 4 2 1 1 2 2 3 4 5 5 3 1 4 4 5 6 7 8 12 14 12 11 16 22 22 22 23 24 23 19 17 16 17 20
3 4 2 2 3 6 4 3 2 1 4 5 5 5 4 2 5 7 5 4 5 5 5 3 3 5 5 6 5 2 2 2 2 1 2 3 4 4 4 5 3 2 3 4 5 8 10 12 15 15 15 18 21 24 25 24 25 26 23 21 21 21 22
3 6 3 4 4 3 4 6 3 3 6 10 9 5 5 4 3 5 4 3 5 7 6 6 6 6 4 3 2 2 2 2 3 3 2 2 2 3 4 5 4 3 1 2 1 2 5 9 11 12 14 18 20 23 26 27 28 28 26 24 24 24 24
2 2 5 5 2 5 7 6 1 4 10 15 12 7 6 5 4 7 6 5 7 7 6 5 4 2 1 2 0 1 1 1 1 2 3 2 1 2 3 4 4 4 4 4 3 3 2 3 7 10 13 16 18 22 27 30 29 29 27 26 27 26 26
2 2 4 1 5 6 6 5 2 6 8 11 11 8 6 4 0 5 6 4 4 3 3 2 2 2 2 3 1 2 1 1 0 1 3 3 2 1 2 3 4 4 4 5 4 4 4 4 5 7 11 13 15 18 25 30 30 30 30 29 29 29 27
2 3 2 2 3 5 7 5 1 4 4 5 7 5 2 4 2 4 6 4 3 2 1 1 2 2 3 4 3 3 3 3 3 3 3 2 1 1 3 4 5 5 5 4 4 5 6 8 8 8 10 12 14 14 15 19 23 27 29 28 29 30 29
2 5 2 2 3 2 5 5 5 3 4 8 8 6 1 4 3 5 6 5 5 3 2 1 1 3 3 3 4 4 4 5 4 4 3 1 2 2 5 6 7 8 8 6 5 5 7 11 12 13 13 14 17 16 13 15 18 22 26 28 29 30 28
2 5 3 2 2 3 6 5 5 6 2 6 7 6 3 5 5 5 6 5 6 5 4 3 3 3 1 4 4 4 4 4 3 3 2 2 4 6 7 7 7 8 7 5 5 5 7 10 12 14 18 19 22 23 20 20 20 19 22 24 23 23 24
2 4 3 2 2 3 4 4 5 5 2 4 8 3 5 6 5 6 6 6 6 5 5 4 4 4 4 5 4 2 3 1 2 4 4 5 7 9 9 9 10 10 9 7 7 8 10 11 12 14 18 24 28 26 22 22 22 23 24 23 19 17 19
3 4 2 2 2 3 4 5 6 4 2 6 5 4 6 4 5 5 5 6 5 5 6 5 4 5 5 3 1 2 5 4 4 6 8 9 10 12 11 11 12 12 11 11 10 12 12 11 15 15 6 23 29 25 22 19 18 22 27 26 22 19 19
3 3 3 0 3 4 5 5 5 3 4 1 4 6 3 3 5 5 4 5 5 5 5 5 5 4 1 2 3 5 6 5 4 6 8 9 11 12 12 12 12 12 12 13 13 13 14 13 16 17 12 19 23 23 22 18 17 20 24 24 22 20 21
2 2 3 2 2 5 4 3 2 3 2 4 5 2 2 2 4 4 4 4 5 5 5 5 5 3 2 5 5 5 6 6 6 6 7 8 9 11 12 11 11 11 12 13 13 13 16 17 18 18 17 18 19 21 21 19 20 23 25 25 23 23 23
3 3 2 3 4 6 3 4 2 3 4 5 5 4 2 2 3 4 4 4 5 6 6 5 4 3 3 5 5 5 5 5 5 6 7 9 10 11 11 10 10 12 12 12 13 15 19 22 22 20 18 18 20 20 19 21 24 26 27 28 27 25 25
3 4 5 5 4 3 2 3 5 4 3 3 5 6 4 2 3 3 4 5 5 6 6 5 4 3 4 5 5 4 5 5 5 7 9 10 11 9 9 9 11 12 12 13 14 17 21 26 27 25 22 19 18 19 21 25 27 28 29 30 29 27 27
2 1 1 2 4 4 3 3 4 4 4 2 4 6 5 3 4 4 4 5 5 6 6 5 4 4 4 5 5 4 5 5 6 8 10 10 10 9 9 9 10 12 13 15 16 18 21 27 30 29 26 23 20 21 24 27 28 29 30 31 30 28 28
2 1 1 2 5 6 5 6 5 5 5 3 4 6 5 5 5 4 5 5 5 5 6 5 5 5 5 6 5 4 5 5 6 8 9 9 9 10 10 9 10 13 15 16 17 18 20 25 29 31 30 28 25 24 26 28 29 30 31 32 32 30 29
2 1 1 5 7 5 4 5 5 4 5 5 4 4 5 5 4 3 4 5 5 5 5 6 6 6 5 6 5 5 5 5 6 7 9 9 11 12 12 12 14 16 16 17 18 19 19 24 30 32 31 29 27 27 27 27 30 31 32 33 33 32 31
3 2 3 6 8 6 6 5 3 2 4 5 4 4 5 5 5 4 3 4 4 5 6 6 7 7 5 5 6 6 6 5 6 8 10 11 13 14 15 15 16 18 18 19 20 20 21 24 29 31 30 28 28 28 27 26 29 31 31 32 32 31 31
2 2 3 4 6 3 0 1 2 2 4 6 6 5 4 4 5 5 5 4 3 5 7 8 8 7 6 6 8 7 6 7 9 11 12 13 14 15 13 12 13 17 19 20 22 21 19 21 25 28 27 27 28 28 26 24 26 28 29 29 28 28 28
4 6 6 5 6 5 4 3 2 2 4 6 7 5 4 4 4 5 6 6 5 5 6 9 10 8 6 9 11 8 7 10 13 14 14 13 11 9 7 8 10 13 15 15 16 15 15 17 22 26 27 27 27 26 23 22 22 24 25 25 25 24 25
3 4 5 5 6 5 5 4 3 4 4 6 6 4 3 3 3 4 5 5 6 6 5 7 11 12 10 12 14 11 9 12 15 15 13 11 9 7 7 9 11 11 12 13 13 14 15 17 20 23 24 24 23 22 21 21 22 22 22 23 23 23 24
4 4 5 5 7 7 6 5 5 4 4 6 5 4 3 4 5 5 5 4 6 9 8 6 10 15 16 15 15 14 12 12 14 15 13 11 12 13 13 13 13 12 13 15 15 15 16 16 16 17 18 18 18 19 21 23 24 24 24 24 25 24 24
Wind_Direction
169 184 227 131 117 142 316 54 105 213 178 130 115 254 301 53 93 244 214 170 303 334 335 337 10 2 353 3 15 94 124 130 153 179 194 185 173 172 177 182 181 178 187 190 180 178 184 184 184 184 183 185 186 188 190 191 194 196 197 199 201 203 205
238 211 90 61 67 134 116 121 197 208 61 77 96 117 350 36 98 270 259 173 264 350 312 330 11 12 346 343 350 1 125 151 171 188 200 183 147 128 178 177 155 146 185 220 197 179 182 186 186 185 184 187 188 189 190 191 192 195 198 201 202 203 204
287 354 68 46 355 32 108 155 171 109 78 15 38 92 68 47 62 294 342 174 228 173 241 324 350 348 334 341 354 3 345 245 196 195 207 193 137 110 165 171 149 154 183 218 219 191 183 184 189 187 185 187 188 189 191 192 193 196 198 201 203 204 205
345 13 52 111 341 9 48 67 59 75 122 156 117 100 143 136 155 269 328 350 282 225 238 285 307 314 331 346 351 353 346 339 322 262 236 225 168 146 165 178 174 172 181 200 220 212 189 183 188 188 185 186 188 190 191 193 195 195 197 200 202 204 206
20 9 291 175 159 101 70 56 47 60 74 104 115 61 85 124 133 177 200 300 270 245 223 225 272 304 308 305 336 328 332 353 354 347 332 301 241 172 173 180 178 180 184 189 203 218 207 191 187 185 185 187 188 190 192 192 194 194 195 199 201 203 206
6 295 246 151 144 144 137 134 151 153 121 107 104 19 328 96 135 163 156 222 266 254 205 214 229 241 228 169 138 313 324 343 344 341 336 319 304 247 194 183 177 177 180 177 182 200 216 205 189 183 184 188 188 190 193 193 193 194 195 197 200 203 206
254 287 314 117 132 131 115 122 145 136 119 114 121 176 244 162 120 152 127 163 266 257 212 220 232 222 209 162 135 131 306 316 327 325 317 316 312 300 260 193 193 117 87 174 179 186 198 210 203 188 182 187 190 190 193 193 193 194 196 197 200 202 204
307 315 340 64 92 87 83 91 135 129 131 136 143 169 170 136 157 149 87 240 271 268 234 231 274 270 244 189 142 143 224 264 276 282 291 306 319 322 357 68 203 17 352 264 193 181 187 201 216 203 185 185 190 191 192 193 193 195 196 197 199 200 202
353 349 351 356 356 32 97 182 176 137 119 112 113 120 88 85 200 156 117 236 260 267 255 327 314 290 283 271 169 143 172 288 291 275 282 298 29 347 18 72 136 188 235 255 218 183 188 197 214 215 193 185 188 190 193 194 194 195 196 196 198 200 202
145 191 252 270 289 311 330 218 188 146 131 130 130 110 91 105 215 150 139 217 260 289 295 327 301 280 290 305 334 46 49 354 326 319 308 292 186 46 21 71 115 164 213 258 264 215 195 196 206 215 202 189 188 190 192 193 194 194 195 196 197 199 202
178 192 218 231 206 265 275 238 202 172 153 142 119 102 137 175 175 178 209 204 229 292 283 275 273 263 276 297 331 38 67 298 299 295 282 279 255 188 155 105 103 130 158 230 305 312 259 207 195 199 205 196 188 189 191 192 194 194 194 196 197 199 202
199 196 216 243 233 234 262 255 211 186 164 142 130 152 191 153 133 230 247 192 181 257 257 244 249 248 269 281 257 206 207 211 242 275 290 295 298 307 11 86 90 106 131 151 220 309 310 274 198 181 187 193 182 181 186 189 193 195 194 195 197 199 202
249 220 224 253 266 265 289 290 211 183 168 166 171 186 184 148 149 226 221 174 185 238 247 229 225 214 219 241 230 207 230 239 233 277 303 310 311 311 340 67 88 99 109 179 181 178 280 298 252 182 171 175 176 177 180 184 190 193 194 195 197 199 202
293 290 289 325 350 327 314 310 234 183 174 183 188 184 173 166 179 207 173 169 197 252 261 209 192 192 198 232 267 218 215 249 228 177 264 305 301 285 260 144 126 124 126 137 163 151 153 232 289 254 178 169 171 177 183 187 190 189 190 196 199 201 203
307 309 331 344 346 352 346 327 288 190 175 192 206 164 159 171 207 109 129 152 221 289 271 193 181 194 194 255 270 244 219 227 173 141 218 276 283 281 276 208 155 141 142 149 159 158 153 163 216 278 235 180 173 178 185 189 191 187 184 188 194 199 201
296 301 352 342 337 19 21 347 334 128 148 162 174 93 133 158 148 114 117 146 224 233 206 184 181 192 206 236 246 251 271 280 106 128 227 270 276 281 292 297 124 127 143 158 174 178 168 175 192 219 229 198 181 179 182 185 188 186 181 179 180 185 191
269 284 20 29 18 26 358 291 275 124 112 97 68 49 43 107 135 134 155 197 207 191 172 171 202 212 228 245 250 274 315 321 329 244 230 260 279 290 305 313 346 86 140 154 187 195 190 198 204 206 211 206 193 186 182 182 185 184 181 182 184 185 188
265 287 4 45 37 26 263 245 208 147 118 102 88 58 15 5 76 119 146 171 166 167 174 187 200 211 235 257 252 261 273 284 299 295 281 270 281 315 323 316 327 334 17 113 135 217 209 221 230 227 220 216 209 197 186 182 184 182 179 183 188 188 187
195 295 39 41 329 234 245 267 325 105 110 107 95 63 25 15 78 112 118 136 156 171 199 216 204 198 355 16 32 249 272 265 291 321 325 320 322 334 322 318 324 327 341 7 10 6 346 279 268 260 243 232 224 207 190 184 185 182 178 180 187 189 187
137 64 77 126 243 258 297 318 127 128 113 105 91 56 13 342 80 134 131 145 170 187 234 289 16 63 26 5 322 247 272 294 279 295 291 301 320 308 311 327 328 327 344 358 359 354 336 316 291 273 260 248 237 217 198 191 187 183 181 184 186 187 186
135 122 154 229 303 325 332 329 229 174 161 144 120 96 346 310 268 165 141 152 201 215 226 319 17 53 18 346 306 260 247 242 244 244 245 242 218 301 337 0 5 10 25 27 1 331 307 293 281 271 266 256 246 234 215 200 188 179 181 188 189 187 187
108 102 106 5 22 325 276 274 293 324 129 139 124 106 337 294 240 174 146 162 205 204 165 200 52 42 8 311 274 256 234 227 240 246 242 188 105 30 4 9 19 32 46 40 355 319 301 296 283 270 269 258 235 219 208 202 193 183 183 191 194 192 189
92 104 120 156 156 233 247 253 312 346 77 121 93 69 323 270 226 183 156 171 203 199 179 172 131 92 309 270 261 242 214 219 261 278 291 39 52 31 20 24 33 47 60 45 2 338 325 313 294 279 273 250 217 201 192 186 185 182 182 190 196 194 188
105 112 129 195 193 223 240 249 288 295 263 83 69 42 275 250 207 186 169 177 200 193 173 161 148 170 220 249 255 211 154 108 12 27 34 31 27 21 26 43 56 63 61 41 18 5 347 332 327 309 268 224 197 188 184 176 174 175 176 184 191 186 177
113 108 131 237 242 220 221 251 278 286 30 63 79 217 240 208 185 196 176 170 188 179 165 170 194 214 219 221 230 89 81 58 42 54 51 42 37 35 43 57 62 62 54 42 33 22 8 356 360 355 242 187 174 170 169 163 162 163 165 170 171 161 151
135 129 134 170 277 243 204 225 280 350 60 88 218 220 203 147 177 196 163 161 181 179 180 198 214 229 240 83 71 60 63 62 62 63 51 43 43 46 53 60 60 59 54 47 42 36 33 34 32 40 90 137 144 145 144 138 142 147 148 151 151 141 132
124 102 102 97 246 241 196 166 336 17 117 200 219 196 81 119 164 159 143 168 183 176 192 218 211 192 87 76 79 73 73 73 76 75 61 50 51 50 51 52 54 61 62 54 48 48 51 55 58 62 78 98 111 120 124 127 136 139 136 135 131 123 120
128 122 173 186 207 226 193 134 149 206 193 189 174 149 110 95 143 147 153 181 191 180 184 200 187 151 109 101 102 94 88 83 82 83 71 63 62 58 53 52 54 62 67 61 55 57 61 64 66 68 74 87 96 101 110 123 127 124 124 126 122 116 116
166 169 207 211 193 200 186 143 161 179 163 137 152 151 137 145 176 167 159 183 201 187 174 173 160 138 125 122 113 102 100 99 94 91 82 77 79 74 63 61 63 65 71 70 63 59 64 70 69 63 62 75 87 93 106 118 119 117 119 120 118 115 114
246 226 200 161 132 123 105 92 115 133 122 123 144 135 132 175 194 179 173 189 197 180 169 164 152 143 131 120 113 111 112 106 96 93 89 87 91 87 69 61 67 72 74 73 67 60 63 71 73 68 60 61 70 86 102 111 114 115 116 113 110 108 107
213 276 351 89 113 122 115 97 94 107 111 119 140 140 154 182 183 181 187 181 169 171 171 156 142 140 129 120 121 121 113 102 91 91 92 91 87 83 75 72 80 84 81 76 72 68 66 71 76 77 71 64 67 82 96 104 109 110 109 106 104 103 103
150 179 26 75 79 70 74 89 103 118 112 105 121 146 160 159 147 158 177 160 152 165 166 144 131 131 132 131 132 124 108 99 96 97 101 100 92 88 90 91 88 87 85 83 81 77 75 78 83 83 78 71 72 79 88 97 103 103 101 101 101 102 103
78 90 108 93 76 43 22 43 72 123 117 106 114 139 148 141 132 135 151 159 158 156 152 142 131 129 138 139 130 122 110 104 109 111 109 109 108 107 103 95 89 88 89 91 90 86 83 86 87 85 82 81 82 84 86 93 99 99 98 100 101 102 103
112 190 192 148 115 105 200 105 76 92 112 110 114 133 146 144 147 151 146 134 127 133 141 142 133 131 140 136 126 121 119 121 125 124 121 122 124 122 114 102 98 100 100 99 97 93 89 87 88 88 89 91 93 93 94 96 98 99 100 101 101 102 104
207 220 211 176 133 137 194 194 109 86 107 109 112 129 144 139 150 161 154 143 133 129 135 139 137 134 135 132 126 119 124 133 133 132 132 135 134 129 121 115 113 113 112 109 107 105 101 96 96 99 101 102 103 104 105 106 106 105 106 106 105 107 110
194 220 200 166 131 133 170 168 119 96 106 108 105 103 103 93 100 130 144 151 149 140 130 135 137 133 128 129 130 128 133 139 138 137 138 138 132 121 113 114 116 117 118 120 122 125 123 116 111 112 114 114 112 112 114 119 118 114 112 112 111 111 114
148 170 170 139 120 127 136 120 91 81 92 107 102 79 71 86 89 99 109 120 139 142 138 132 134 132 128 129 134 136 137 137 136 134 130 124 120 115 108 108 114 117 115 112 112 116 123 127 128 129 128 125 120 117 119 123 122 118 114 114 114 115 117